Latest Weather Observations for Cape Nelson

IDV60801

Issued at 4:05 pm EST Monday 22 September 2014 (issued every 30 minutes, with the page automatically refreshed every 10 minutes)

About weather observations | Map of weather stations | Latest weather observations for VIC | Other Formats
Station Details ID: 090184 Name: CAPE NELSON LIGHTHOUSE Lat: -38.43 Lon: 141.54 Height: 45.4 m
Data from the previous 72 hours. | See also: Recent months at Cape Nelson
Date/Time
EST
Temp
°C
App
Temp
°C
Dew
Point
Rel
Hum
%
Delta-T
°C
Wind Press
QNH
hPa
Press
MSL
hPa
Rain
since 9 am
mm
Dir
 
Spd
km/h
Gust
km/h
Spd
kts
Gust
kts
22/04:00pm 19.1 17.0 9.6 54 5.0 SE 11 13 6 7 1024.4 1024.5 0.0
22/03:30pm 19.7 17.6 9.6 52 5.4 SE 11 15 6 8 1024.5 1024.6 0.0
22/03:00pm 20.3 18.1 7.7 44 6.5 SSE 9 13 5 7 1024.7 1024.8 0.0
22/02:30pm 20.4 18.6 9.3 49 5.9 SSE 9 13 5 7 1024.9 1025.0 0.0
22/02:00pm 20.2 17.8 7.2 43 6.6 SSE 9 13 5 7 1025.1 1025.2 0.0
22/01:30pm 20.7 18.4 7.3 42 6.9 SSE 9 15 5 8 1025.3 1025.4 0.0
22/01:00pm 22.0 18.4 5.0 33 8.4 NW 13 22 7 12 1025.3 1025.4 0.0
22/12:30pm 22.0 18.1 5.4 34 8.3 WNW 15 22 8 12 1025.7 1025.8 0.0
22/12:00pm 21.6 18.1 7.4 40 7.3 NW 15 22 8 12 1026.1 1026.2 0.0
22/11:30am 21.9 18.0 7.3 39 7.5 NNW 17 22 9 12 1026.5 1026.6 0.0
22/11:00am 20.8 17.2 6.7 40 7.1 N 15 24 8 13 1026.9 1026.9 0.0
22/10:30am 19.5 15.5 6.6 43 6.5 N 17 26 9 14 1027.2 1027.2 0.0
22/10:00am 19.0 15.2 7.4 47 5.9 N 17 26 9 14 1027.5 1027.5 0.0
22/09:30am 17.7 13.7 6.6 48 5.5 N 17 22 9 12 1027.3 1027.3 0.0
22/09:00am 16.1 11.6 6.0 51 4.9 N 19 28 10 15 1027.5 1027.5 0.0
22/08:30am 14.5 10.5 6.8 60 3.8 N 17 24 9 13 1027.6 1027.6 0.0
22/08:00am 13.3 8.8 5.9 61 3.5 N 19 28 10 15 1027.5 1027.5 0.0
22/07:30am 11.3 6.7 5.4 67 2.7 N 19 24 10 13 1027.3 1027.3 0.0
22/07:00am 8.6 5.0 4.8 77 1.7 N 13 17 7 9 1027.3 1027.3 0.0
22/06:30am 7.4 3.6 4.0 79 1.5 N 13 17 7 9 1027.1 1027.1 0.0
22/06:00am 8.6 4.6 5.0 78 1.6 N 15 17 8 9 1026.9 1026.9 0.0
22/05:30am 8.4 4.5 5.2 80 1.4 N 15 19 8 10 1026.8 1026.8 0.0
22/05:00am 8.4 4.9 5.5 82 1.3 N 13 17 7 9 1026.9 1026.9 0.0
22/04:30am 7.9 4.5 5.7 86 1.0 N 13 17 7 9 1026.7 1026.7 0.0
22/04:00am 7.9 3.3 5.7 86 1.0 N 19 22 10 12 1026.5 1026.6 0.0
22/03:30am 8.1 3.6 6.2 88 0.9 N 19 24 10 13 1026.9 1026.9 0.0
22/03:00am 7.7 3.5 5.7 87 0.9 NNE 17 22 9 12 1027.1 1027.1 0.0
22/02:30am 8.2 4.1 6.2 87 0.9 NNE 17 20 9 11 1027.4 1027.4 0.0
22/02:00am 8.8 4.5 6.8 87 0.9 NNE 19 26 10 14 1027.6 1027.6 0.0
22/01:30am 9.3 4.5 7.3 87 0.9 NE 22 28 12 15 1027.9 1027.9 0.0
22/01:00am 9.9 5.2 7.7 86 1.0 NE 22 30 12 16 1028.1 1028.1 0.0
22/12:30am 10.3 6.1 8.1 86 1.1 NE 20 24 11 13 1028.3 1028.3 0.0
22/12:00am 9.9 5.6 8.0 88 0.9 NE 20 28 11 15 1028.6 1028.6 0.0
 
Date/Time
EST
Temp
°C
App
Temp
°C
Dew
Point
Rel
Hum
%
Delta-T
°C
Wind Press
QNH
hPa
Press
MSL
hPa
Rain
since 9 am
mm
Dir
 
Spd
km/h
Gust
km/h
Spd
kts
Gust
kts
21/11:30pm 10.1 5.8 7.7 85 1.2 NE 20 24 11 13 1028.9 1028.9 0.0
21/11:00pm 11.2 7.0 8.1 81 1.5 NE 20 28 11 15 1029.2 1029.2 0.0
21/10:30pm 11.7 7.1 8.2 79 1.7 ENE 22 30 12 16 1029.2 1029.2 0.0
21/10:00pm 11.7 6.3 7.8 77 1.9 ENE 26 33 14 18 1029.4 1029.4 0.0
21/09:30pm 11.7 6.6 7.6 76 2.0 ENE 24 32 13 17 1029.7 1029.7 0.0
21/09:00pm 11.6 6.8 7.3 75 2.1 E 22 33 12 18 1029.8 1029.8 0.0
21/08:30pm 11.7 7.3 7.4 75 2.1 E 20 28 11 15 1029.9 1029.9 0.0
21/08:00pm 11.7 7.2 7.0 73 2.2 E 20 30 11 16 1029.9 1029.9 0.0
21/07:30pm 11.6 7.0 6.7 72 2.3 E 20 30 11 16 1029.7 1029.7 0.0
21/07:00pm 11.7 7.1 6.6 71 2.4 E 20 28 11 15 1029.6 1029.6 0.0
21/06:30pm 11.6 7.0 6.5 71 2.4 E 20 26 11 14 1029.5 1029.5 0.0
21/06:00pm 12.0 7.6 6.7 70 2.5 E 19 24 10 13 1029.5 1029.5 0.0
21/05:30pm 12.4 8.0 6.5 67 2.8 E 19 22 10 12 1029.4 1029.4 0.0
21/05:00pm 12.9 8.9 6.5 65 3.0 E 17 22 9 12 1029.3 1029.3 0.0
21/04:30pm 13.4 8.9 6.3 62 3.4 E 19 24 10 13 1029.3 1029.3 0.0
21/04:00pm 13.8 9.7 6.4 61 3.5 E 17 24 9 13 1029.4 1029.4 0.0
21/03:30pm 14.3 10.2 6.2 58 3.9 E 17 22 9 12 1029.7 1029.7 0.0
21/03:00pm 14.4 10.3 6.0 57 4.0 E 17 20 9 11 1030.2 1030.2 0.0
21/02:30pm 14.7 10.6 6.3 57 4.1 E 17 20 9 11 1030.6 1030.6 0.0
21/02:00pm 14.7 10.8 5.5 54 4.3 E 15 19 8 10 1030.9 1030.9 0.0
21/01:30pm 14.9 11.4 5.4 53 4.5 E 13 19 7 10 1031.2 1031.2 0.0
21/01:00pm 14.9 10.7 5.7 54 4.4 ENE 17 22 9 12 1031.7 1031.7 0.0
21/12:30pm 14.9 11.1 6.0 55 4.3 ENE 15 20 8 11 1032.0 1032.0 0.0
21/12:00pm 15.0 11.6 6.0 55 4.3 E 13 20 7 11 1032.3 1032.3 0.0
21/11:30am 15.1 12.2 6.4 56 4.2 E 11 17 6 9 1032.7 1032.7 0.0
21/11:00am 13.7 10.3 5.8 59 3.7 ENE 13 19 7 10 1032.8 1032.8 0.0
21/10:30am 13.6 10.6 6.0 60 3.6 E 11 15 6 8 1032.9 1032.9 0.0
21/10:00am 13.5 10.9 5.9 60 3.6 E 9 13 5 7 1033.0 1033.0 0.0
21/09:30am 13.7 11.2 6.6 62 3.4 ENE 9 15 5 8 1032.8 1032.8 0.0
21/09:00am 13.3 11.3 6.9 65 3.1 NE 7 11 4 6 1032.6 1032.6 0.0
21/08:30am 11.6 9.5 6.5 71 2.4 NNE 7 9 4 5 1032.4 1032.4 0.0
21/08:00am 11.2 8.6 5.9 70 2.4 NNE 9 11 5 6 1031.9 1031.9 0.0
21/07:30am 8.5 5.7 5.3 80 1.4 NNE 9 13 5 7 1031.5 1031.5 0.0
21/07:00am 7.0 3.9 3.8 80 1.4 NNE 9 11 5 6 1031.2 1031.2 0.0
21/06:30am 6.9 3.4 3.3 78 1.5 NNE 11 13 6 7 1030.9 1030.9 0.0
21/06:00am 7.3 4.1 3.2 75 1.7 NNE 9 11 5 6 1030.7 1030.7 0.0
21/05:30am 8.1 4.9 3.2 71 2.1 N 9 11 5 6 1030.3 1030.3 0.0
21/05:00am 10.6 6.9 4.3 65 2.8 E 13 20 7 11 1030.1 1030.1 0.0
21/04:30am 11.1 7.0 4.1 62 3.1 E 15 22 8 12 1030.1 1030.1 0.0
21/04:00am 11.5 7.8 4.7 63 3.1 E 13 19 7 10 1030.0 1030.0 0.0
21/03:30am 11.7 7.7 4.9 63 3.1 E 15 19 8 10 1030.2 1030.2 0.0
21/03:00am 11.9 8.8 5.5 65 2.9 ESE 11 22 6 12 1030.2 1030.2 0.0
21/02:30am 11.8 8.4 5.7 66 2.8 SE 13 20 7 11 1030.5 1030.5 0.0
21/02:00am 11.7 7.5 5.6 66 2.8 E 17 24 9 13 1030.7 1030.7 0.0
21/01:30am 11.6 7.7 5.3 65 2.9 E 15 20 8 11 1030.9 1030.9 0.0
21/01:00am 11.4 8.1 4.8 64 3.0 ESE 11 17 6 9 1030.9 1030.9 0.0
21/12:30am 11.4 7.7 4.6 63 3.1 SE 13 20 7 11 1031.1 1031.1 0.0
21/12:00am 11.3 7.6 4.5 63 3.0 SE 13 19 7 10 1031.0 1031.0 0.0
 
Date/Time
EST
Temp
°C
App
Temp
°C
Dew
Point
Rel
Hum
%
Delta-T
°C
Wind Press
QNH
hPa
Press
MSL
hPa
Rain
since 9 am
mm
Dir
 
Spd
km/h
Gust
km/h
Spd
kts
Gust
kts
20/11:30pm 11.3 7.6 4.3 62 3.1 SE 13 20 7 11 1031.2 1031.2 0.0
20/11:00pm 11.4 7.7 4.6 63 3.1 E 13 20 7 11 1031.1 1031.1 0.0
20/10:30pm 11.2 7.8 4.0 61 3.2 ESE 11 17 6 9 1031.2 1031.2 0.0
20/10:00pm 11.2 7.5 4.2 62 3.1 ESE 13 17 7 9 1031.3 1031.3 0.0
20/09:30pm 11.3 7.5 4.1 61 3.2 E 13 19 7 10 1030.9 1030.9 0.0
20/09:00pm 11.2 6.9 3.5 59 3.4 E 15 19 8 10 1030.7 1030.7 0.0
20/08:30pm 11.6 7.5 4.1 60 3.4 E 15 20 8 11 1030.5 1030.5 0.0
20/08:00pm 11.7 7.9 4.0 59 3.4 ESE 13 22 7 12 1030.6 1030.6 0.0
20/07:30pm 12.0 7.8 4.0 58 3.6 ESE 15 22 8 12 1030.5 1030.5 0.0
20/07:00pm 12.0 8.3 4.5 60 3.4 ESE 13 19 7 10 1030.2 1030.2 0.0
20/06:30pm 12.2 8.0 5.6 64 3.1 E 17 22 9 12 1030.0 1030.0 0.0
20/06:00pm 12.4 8.7 4.6 59 3.5 SE 13 17 7 9 1029.9 1029.9 0.0
20/05:30pm 13.0 9.2 3.9 54 4.1 SE 13 17 7 9 1029.7 1029.7 0.0
20/05:00pm 13.9 9.3 3.9 51 4.5 SSE 17 26 9 14 1029.5 1029.5 0.0
20/04:30pm 15.1 11.8 4.8 50 4.8 SSE 11 15 6 8 1029.5 1029.5 0.0
20/04:00pm 14.7 11.4 4.7 51 4.6 SSE 11 17 6 9 1029.1 1029.1 0.0
20/03:30pm 15.1 12.2 4.8 50 4.8 S 9 13 5 7 1028.9 1028.9 0.0
20/03:00pm 14.9 11.6 4.6 50 4.8 S 11 15 6 8 1029.0 1029.0 0.0
20/02:30pm 15.2 11.5 4.3 48 5.1 SSE 13 17 7 9 1029.0 1029.0 0.0
20/02:00pm 15.4 11.9 5.3 51 4.8 SSE 13 20 7 11 1029.0 1029.0 0.0
20/01:30pm 15.4 11.8 5.0 50 4.9 SSE 13 17 7 9 1028.9 1028.9 0.0
20/01:00pm 15.4 11.6 5.6 52 4.7 SE 15 19 8 10 1028.8 1028.8 0.0
20/12:30pm 15.5 12.0 5.4 51 4.8 SE 13 20 7 11 1029.0 1029.0 0.0
20/12:00pm 15.0 12.3 5.8 54 4.4 ESE 9 13 5 7 1029.1 1029.1 0.0
20/11:30am 15.7 12.5 5.3 50 5.0 ESE 11 15 6 8 1029.0 1029.0 0.0
20/11:00am 15.9 13.3 6.1 52 4.7 ESE 9 13 5 7 1029.0 1029.0 0.0
20/10:30am 14.8 12.3 4.5 50 4.8 SE 7 11 4 6 1029.1 1029.1 0.0
20/10:00am 14.6 11.6 4.0 49 4.8 ESE 9 11 5 6 1029.3 1029.3 0.0
20/09:30am 14.7 12.2 4.7 51 4.7 SSE 7 13 4 7 1029.4 1029.4 0.0
20/09:00am 13.7 10.0 4.3 53 4.3 SE 13 19 7 10 1029.3 1029.3 0.0
20/08:30am 13.3 9.8 5.5 59 3.7 SSE 13 19 7 10 1029.1 1029.1 0.0
20/08:00am 11.0 8.5 6.4 73 2.1 SSE 9 15 5 8 1028.8 1028.8 0.0
20/07:30am 6.7 5.5 4.4 85 1.0 CALM 0 0 0 0 1028.4 1028.4 0.0
20/07:00am 4.7 2.6 1.9 82 1.1 N 2 6 1 3 1028.0 1028.0 0.0
20/06:30am 7.6 4.6 4.2 79 1.5 S 9 15 5 8 1027.7 1027.7 0.0
20/06:00am 6.4 4.0 4.2 86 0.9 SSE 6 13 3 7 1027.4 1027.4 0.0
20/05:30am 5.3 3.8 2.8 84 1.0 CALM 0 0 0 0 1027.1 1027.1 0.0
20/05:00am 6.5 3.7 3.1 79 1.4 S 7 11 4 6 1026.7 1026.7 0.0
20/04:30am 7.5 4.8 3.7 77 1.6 SSE 7 13 4 7 1026.3 1026.4 0.0
20/04:00am 9.8 6.9 4.6 70 2.3 SSE 9 11 5 6 1026.1 1026.2 0.0
20/03:30am 8.5 5.6 4.9 78 1.6 S 9 11 5 6 1025.9 1026.0 0.0
20/03:00am 6.7 4.2 3.7 81 1.3 NE 6 7 3 4 1025.8 1025.9 0.0
20/02:30am 7.8 5.7 4.0 77 1.6 SSE 4 7 2 4 1025.9 1026.0 0.0
20/02:00am 8.5 6.2 4.9 78 1.6 NE 6 9 3 5 1026.0 1026.1 0.0
20/01:30am 10.5 8.1 5.3 70 2.4 S 7 13 4 7 1026.3 1026.4 0.0
20/01:00am 10.8 7.7 5.6 70 2.4 SSE 11 15 6 8 1026.3 1026.4 0.0
20/12:30am 10.9 8.0 6.5 74 2.1 S 11 17 6 9 1026.3 1026.4 0.0
20/12:00am 11.1 7.9 6.8 75 2.0 SSE 13 19 7 10 1026.4 1026.5 0.0
 
Date/Time
EST
Temp
°C
App
Temp
°C
Dew
Point
Rel
Hum
%
Delta-T
°C
Wind Press
QNH
hPa
Press
MSL
hPa
Rain
since 9 am
mm
Dir
 
Spd
km/h
Gust
km/h
Spd
kts
Gust
kts
19/11:30pm 11.0 7.8 6.9 76 1.9 S 13 17 7 9 1026.3 1026.4 0.0
19/11:00pm 11.1 7.6 7.2 77 1.9 S 15 19 8 10 1026.4 1026.5 0.0
19/10:30pm 11.3 7.4 7.2 76 2.0 S 17 22 9 12 1026.4 1026.5 0.0
19/10:00pm 11.3 7.2 6.0 70 2.5 S 17 20 9 11 1026.4 1026.5 0.0
19/09:30pm 11.6 8.2 6.1 69 2.6 S 13 19 7 10 1026.7 1026.7 0.0
19/09:00pm 11.5 7.3 5.6 67 2.7 S 17 24 9 13 1026.8 1026.8 0.0
19/08:30pm 11.6 7.7 5.5 66 2.8 S 15 24 8 13 1026.8 1026.8 0.0
19/08:00pm 11.6 8.1 5.5 66 2.8 S 13 20 7 11 1026.5 1026.6 0.0
19/07:30pm 11.6 8.2 5.7 67 2.7 S 13 20 7 11 1026.3 1026.4 0.0
19/07:00pm 11.7 8.3 5.8 67 2.7 S 13 22 7 12 1026.1 1026.2 0.0
19/06:30pm 11.6 8.2 5.7 67 2.7 SSE 13 24 7 13 1025.9 1026.0 0.0
19/06:00pm 12.0 9.0 6.1 67 2.8 SE 11 19 6 10 1025.7 1025.8 0.0
19/05:30pm 12.4 9.4 6.0 65 3.0 ESE 11 22 6 12 1025.5 1025.6 0.0
19/05:00pm 12.9 10.0 6.5 65 3.0 ESE 11 20 6 11 1025.4 1025.5 0.0
19/04:30pm 13.8 11.0 7.1 64 3.3 E 11 19 6 10 1025.3 1025.4 0.0

Other Formats:

Comma delimited format used in spreadsheet applications
http://www.bom.gov.au/fwo/IDV60801/IDV60801.94826.axf

JavaScript Object Notation format (JSON) in row-major order
http://www.bom.gov.au/fwo/IDV60801/IDV60801.94826.json